Glendale Luke AFB, AZ

10:34 PM MST on October 23, 2019 (GMT -0700)
Luke Air Force Base

Weather History for KLUF - September, 2019

Change the Weather History Date:

Monday, September 16, 2019

  Actual Average Record
Temperature  
Mean Temperature 86 °F -  
Max Temperature 97 °F 100 °F 111 °F (1935)
Min Temperature 76 °F 66 °F 52 °F (1928)
Cooling Degree Days 22    
Growing Degree Days 36 (Base 50)    
Moisture  
Dew Point 60 °F    
Average Humidity 44    
Maximum Humidity 65    
Minimum Humidity 25    
Precipitation  
Precipitation 0.00 in - - ()
Sea Level Pressure  
Sea Level Pressure 29.81 in    
Wind  
Wind Speed 6 mph (South)    
Max Wind Speed 28 mph    
Max Gust Speed 32 mph    
Visibility 10 miles    
Events Rain , Thunderstorm    
Averages and records for this station are not official NWS values.
T = Trace of Precipitation, MM = Missing Value Source: NWS Daily Summary

Daily Weather History Graph

Daily Weather History Graph

Search for Another Location

Airport or City:

Astronomy

Sep. 16, 2019 Rise Set
Actual Time 6:13 AM MST 6:34 PM MST
Civil Twilight 5:48 AM MST 6:59 PM MST
Nautical Twilight 5:19 AM MST 7:28 PM MST
Astronomical Twilight 4:49 AM MST 7:58 PM MST
Moon 8:17 PM MST (9/16) 8:19 AM MST (9/16)
Length of Visible Light 13h 11m
Length of Day
12h 21m
Waning Gibbous, 94% of the Moon is Illuminated
Sep 16
Waning Gibbous
Sep 21
Last Quarter
Sep 28
New
Oct 5
First Quarter
Oct 13
Full

Hourly Weather History & Observations

Time (MST) Temp. Heat Index Dew Point Humidity Pressure Visibility Wind Dir Wind Speed Gust Speed Precip Events Conditions
12:58 AM 83.8 °F 83.1 °F 56.8 °F 40% 29.80 in 10.0 mi Calm Calm - N/A   Clear
1:58 AM 83.1 °F 83.0 °F 58.8 °F 44% 29.81 in 10.0 mi Calm Calm - N/A   Clear
2:58 AM 82.6 °F 82.6 °F 59.0 °F 45% 29.80 in 10.0 mi ENE 3.5 mph - N/A   Overcast
3:58 AM 82.0 °F 82.2 °F 59.2 °F 46% 29.81 in 10.0 mi Calm Calm - N/A   Partly Cloudy
4:58 AM 81.1 °F 81.9 °F 60.6 °F 50% 29.82 in 10.0 mi Calm Calm - N/A   Scattered Clouds
5:58 AM 80.8 °F 81.4 °F 59.7 °F 49% 29.83 in 10.0 mi Calm Calm - N/A   Clear
6:58 AM 81.7 °F 81.9 °F 58.8 °F 46% 29.85 in 10.0 mi Calm Calm - N/A   Clear
7:58 AM 85.1 °F 84.8 °F 59.4 °F 42% 29.86 in 10.0 mi Calm Calm - N/A   Clear
8:58 AM 88.2 °F 87.8 °F 60.1 °F 39% 29.87 in 10.0 mi Calm Calm - N/A   Clear
9:18 AM 89.6 °F 89.5 °F 60.8 °F 38% 29.87 in 10.0 mi South 3.5 mph - N/A   Partly Cloudy
9:58 AM 90.1 °F 89.6 °F 59.5 °F 36% 29.87 in 10.0 mi SE 3.5 mph - N/A   Scattered Clouds
10:58 AM 92.1 °F 91.4 °F 58.8 °F 33% 29.85 in 10.0 mi Calm Calm - N/A   Mostly Cloudy
12:00 PM 94.1 °F 93.1 °F 57.9 °F 30% 29.83 in 10.0 mi SE 4.6 mph - 0.00 in   Mostly Cloudy
12:58 PM 94.3 °F 93.0 °F 57.0 °F 29% 29.82 in 10.0 mi East 3.5 mph - N/A   Mostly Cloudy
1:58 PM 96.1 °F 94.1 °F 54.5 °F 25% 29.77 in 10.0 mi WSW 5.8 mph - N/A   Mostly Cloudy
2:58 PM 96.6 °F 95.2 °F 56.1 °F 26% 29.75 in 10.0 mi SW 6.9 mph - N/A   Mostly Cloudy
3:58 PM 97.5 °F 96.5 °F 56.8 °F 26% 29.73 in 10.0 mi South 8.1 mph - N/A   Scattered Clouds
4:58 PM 96.8 °F 95.5 °F 56.1 °F 26% 29.72 in 10.0 mi South 8.1 mph - N/A   Clear
6:58 PM 90.5 °F 89.3 °F 57.4 °F 33% 29.73 in 10.0 mi SE 18.4 mph 26.5 mph N/A   Clear
7:27 PM 87.8 °F 86.1 °F 55.4 °F 33% 29.74 in 10.0 mi SE 19.6 mph 31.1 mph N/A Thunderstorm Mostly Cloudy
7:37 PM 89.6 °F 87.3 °F 53.6 °F 29% 29.76 in 10.0 mi South 16.1 mph 26.5 mph N/A Thunderstorm Mostly Cloudy
7:47 PM 89.6 °F 87.7 °F 55.4 °F 31% 29.79 in 10.0 mi SW 15.0 mph 25.3 mph N/A Thunderstorm Mostly Cloudy
7:58 PM 87.4 °F 87.2 °F 60.1 °F 40% 29.81 in 10.0 mi SSW 24.2 mph 28.8 mph N/A   Mostly Cloudy
8:01 PM 86.0 °F 86.6 °F 62.6 °F 45% 29.82 in 10.0 mi SSW 25.3 mph 28.8 mph N/A Rain Light Rain
8:03 PM 86.0 °F 87.3 °F 64.4 °F 48% 29.82 in 9.0 mi South 27.6 mph 32.2 mph N/A Rain , Thunderstorm Light Thunderstorms and Rain
8:12 PM 82.4 °F 84.6 °F 66.2 °F 58% 29.82 in 10.0 mi SW 23.0 mph 32.2 mph N/A Rain , Thunderstorm Light Thunderstorms and Rain
8:33 PM 77.0 °F - 62.6 °F 61% 29.85 in 10.0 mi SW 17.3 mph 26.5 mph N/A Rain , Thunderstorm Light Thunderstorms and Rain
8:37 PM 77.0 °F - 64.4 °F 65% 29.83 in 10.0 mi South 13.8 mph 24.2 mph N/A Rain , Thunderstorm Light Thunderstorms and Rain
8:58 PM 76.8 °F - 63.7 °F 64% 29.82 in 10.0 mi SE 12.7 mph - 0.00 in Rain , Thunderstorm Light Thunderstorms and Rain
9:02 PM 77.0 °F - 62.6 °F 61% 29.82 in 10.0 mi ESE 16.1 mph - N/A Thunderstorm Overcast
9:11 PM 78.8 °F - 62.6 °F 57% 29.81 in 10.0 mi SE 15.0 mph - N/A   Mostly Cloudy
9:58 PM 78.6 °F - 63.0 °F 59% 29.84 in 10.0 mi NE 5.8 mph - 0.00 in   Clear
10:28 PM 78.8 °F - 64.4 °F 61% 29.83 in 10.0 mi WNW 6.9 mph - N/A   Mostly Cloudy
10:58 PM 77.5 °F - 64.4 °F 64% 29.83 in 10.0 mi WNW 4.6 mph - N/A   Scattered Clouds
11:58 PM 78.3 °F - 63.1 °F 60% 29.82 in 10.0 mi NW 3.5 mph - N/A   Clear